Погода в Ножкине

Россия / Саратовская область     52°22′28″N   45°36′45″E
темп.,
°C
ветер,
м/с
пор.,
м/с
влажн.,
%
обл.,
%
осадки,
мм/ч
давл.,
гПа
погр.,
м
25 июля, вс
вс2501:00+14ссв367750 0.0 101686
04:00+12ссв34865 0.0 101758
07:00+14ссв35785 0.0 1019167
10:00+19ссв34525 0.0 1020843
13:00+22с33427 0.0 10202085
16:00+21ссз3549100 0.0 1021238
19:00+19св3557100 0.0 1021310
22:00+15св226771 0.0 102222
26 июля, пн
пн2601:00+15св116335 0.0 102311
04:00+15св226040 0.0 102429
07:00+15св126062 0.0 102488
10:00+20в124766 0.0 1025525
13:00+23юз223855 0.0 10241990
16:00+21сз2350100 0.0 1023282
19:00+20ссв235461 0.0 102386
22:00+16юв11599 0.0 102311
27 июля, вт
вт2701:00+14з11635 0.0 102410
04:00+14з116391 0.0 102310
07:00+17з125944 0.0 102361
10:00+22з334512 0.0 1022666
13:00+25з343738 0.0 10212407
16:00+23зсз244894 0.0 1020373
19:00+24ссз244647 0.0 1019273
22:00+19с22582 0.0 102015
28 июля, ср
ср2801:00+16зсз22645 0.0 102012
04:00+15зсз227059 0.0 101915
07:00+18зсз24675 0.0 1019110
10:00+24сз34475 0.0 1018732
13:00+27сз35385 0.0 10172249
16:00+25зсз3446100 0.0 10161095
19:00+25ю124982 0.0 101663
22:00+20ююз2253100 0.0 101522
29 июля, чт
чт2901:00+19ююз335557 0.0 101439
04:00+18ююз3658100 0.0 101389
07:00+19ссв2261100 0.1 101332
10:00+19вюв3466100 0.2 101261
13:00+23ююз61045100 0.0 1010943
16:00+26юз8114974 0.1 10091769
19:00+21ююз51078100 0.8 1008283
22:00+19ююз5138558 1.6 1007271